Tracking 28052 objects as of 25-Sep-2023
HD Live streaming from Space Station
objects crossing your sky now

STARLINK-2572

Track STARLINK-2572 now!
10-day predictions
STARLINK-2572 is classified as:


NORAD ID: 48372
Int'l Code: 2021-038V
Perigee: 553.4 km
Apogee: 555.2 km
Inclination: 53.1 °
Period: 95.6 minutes
Semi major axis: 6925 km
RCS: Unknown
Launch date: May 4, 2021
Source: United States (US)
Launch site: AIR FORCE EASTERN TEST RANGE (AFETR)
Your satellite tracking list
Your tracking list is empty




NASA's NSSDC Master Catalog

Two Line Element Set (TLE):
1 48372U 21038V   23267.41601589  .00023018  00000-0  15583-2 0  9990
2 48372  53.0542  59.6369 0001248  73.6190 286.4936 15.06420319131929
Source of the keplerian elements: AFSPC